FW0320 Weather Reports


Display with metric or nautical units.
time (UTC)temp
F
wind
direction
speed
MPH
gust
MPH
rain 1hr
in
rain 24hr
in
rain mn
in
humidity
%
barometer
mb
20260507074545 50 125 0.0 3.0 0.00 0.66 0.00 88 1008.2
20260507073048 50 59 0.0 0.0 0.00 0.66 0.00 88 1008.1
20260507071542 50 59 0.0 0.0 0.00 0.66 0.00 88 1007.8
20260507070042 50 24 0.0 0.0 0.00 0.66 0.00 89 1007.9
20260507064541 50 24 0.0 1.0 0.00 0.66 0.00 89 1007.6
20260507063040 50 24 0.0 2.0 0.00 0.69 0.00 90 1007.6
20260507061538 51 24 0.0 2.0 0.01 0.69 0.00 89 1007.6
20260507060036 51 323 0.0 2.0 0.01 0.69 0.00 90 1007.6
20260507054538 51 256 0.0 2.0 0.01 0.69 0.69 91 1008.0
20260507053034 51 161 0.0 2.0 0.01 0.69 0.69 91 1008.2
20260507051533 52 162 0.0 2.0 0.01 0.69 0.69 90 1008.2
20260507050034 52 163 1.0 2.0 0.01 0.68 0.68 90 1008.1
20260507044530 53 267 1.0 3.0 0.03 0.68 0.68 89 1007.8
20260507043028 54 331 0.0 2.0 0.03 0.68 0.68 90 1007.8
20260507041525 55 21 1.0 3.0 0.03 0.68 0.68 91 1007.9
20260507040024 55 9 0.0 3.0 0.03 0.67 0.67 90 1007.9
20260507034522 56 304 1.0 4.0 0.01 0.65 0.65 90 1007.3
20260507033023 57 9 1.0 2.0 0.01 0.65 0.65 91 1006.9
20260507031517 58 348 1.0 5.0 0.01 0.65 0.65 90 1006.8
20260507030019 59 46 1.0 5.0 0.00 0.64 0.64 93 1006.7
20260507024516 59 28 1.0 3.0 0.00 0.64 0.64 93 1006.6
20260507023015 59 144 0.0 2.0 0.00 0.64 0.64 92 1006.6
20260507021514 58 144 0.0 2.0 0.00 0.64 0.64 92 1006.3
20260507020014 58 267 0.0 4.0 0.00 0.64 0.64 92 1006.4
20260507014521 58 9 1.0 4.0 0.00 0.64 0.64 92 1006.4
20260507013032 58 263 0.0 4.0 0.00 0.64 0.64 92 1006.5
20260507011514 58 176 0.0 3.0 0.00 0.64 0.64 92 1006.5
20260507010023 59 329 0.0 3.0 0.00 0.64 0.64 92 1006.6
20260507004512 59 360 1.0 4.0 0.00 0.82 0.64 92 1006.6
20260507003011 59 9 1.0 5.0 0.00 0.82 0.64 91 1006.3
20260507001510 59 351 1.0 3.0 0.01 0.82 0.64 91 1006.4
20260507000011 59 87 0.0 5.0 0.01 0.82 0.64 91 1006.3
20260506234514 59 30 1.0 6.0 0.01 1.06 0.64 91 1006.3
20260506233010 59 75 0.0 4.0 0.01 1.06 0.64 91 1006.1
20260506231508 59 147 2.0 5.0 0.01 1.06 0.64 91 1006.2
20260506230009 59 96 0.0 5.0 0.00 1.05 0.63 91 1006.3
20260506224506 59 110 1.0 4.0 0.01 1.32 0.63 90 1006.5
20260506223004 59 350 1.0 6.0 0.01 1.32 0.63 90 1006.4
20260506221502 59 97 2.0 8.0 0.01 1.32 0.63 90 1006.6
20260506220000 59 338 1.0 4.0 0.01 1.32 0.63 89 1006.5
20260506214600 59 13 1.0 8.0 0.02 1.31 0.62 88 1006.6
20260506213122 60 25 1.0 5.0 0.03 1.87 0.62 88 1006.7
20260506211558 60 125 1.0 8.0 0.03 1.87 0.62 89 1007.0
20260506204556 60 333 3.0 9.0 0.01 1.85 0.60 87 1007.5
20260506203055 61 55 1.0 5.0 0.00 2.00 0.59 86 1007.3
20260506201553 62 145 1.0 7.0 0.00 2.00 0.59 85 1007.3
20260506194552 63 163 1.0 4.0 0.00 2.00 0.59 83 1007.2
20260506193051 63 127 0.0 5.0 0.00 2.00 0.59 81 1007.2
20260506191548 64 63 1.0 6.0 0.00 2.00 0.59 78 1007.0
20260506184551 67 109 1.0 3.0 0.05 2.00 0.59 72 1007.3
20260506183054 68 233 2.0 7.0 0.07 2.00 0.59 67 1007.3
20260506181611 69 210 1.0 3.0 0.07 2.00 0.59 64 1007.4
20260506174543 71 306 4.0 12.0 0.10 1.97 0.55 53 1007.3
20260506173055 72 30 2.0 7.0 0.09 1.94 0.52 54 1007.3
20260506171540 72 76 1.0 10.0 0.09 1.94 0.52 55 1007.3
20260506164538 71 163 3.0 11.0 0.02 1.87 0.45 58 1007.9
20260506163037 71 60 1.0 8.0 0.02 1.85 0.43 58 1008.1
20260506161532 71 14 1.0 4.0 0.04 1.85 0.43 58 1008.2
20260506154532 69 164 2.0 8.0 0.13 1.85 0.43 60 1008.9
20260506153029 69 326 2.0 8.0 0.15 1.83 0.41 60 1009.2
20260506151529 70 32 1.0 9.0 0.23 1.81 0.39 60 1009.3
20260506144525 69 324 2.0 11.0 0.20 1.73 0.31 62 1009.4
20260506143023 69 24 1.0 9.0 0.16 1.68 0.26 64 1009.3
20260506141519 68 33 3.0 13.0 0.06 1.58 0.16 64 1009.2
20260506134516 66 219 2.0 10.0 0.02 1.53 0.11 68 1009.5
20260506133013 65 344 2.0 5.0 0.02 1.53 0.11 69 1009.9
20260506131516 64 201 2.0 10.0 0.03 1.52 0.10 70 1010.1
20260506124509 64 69 1.0 9.0 0.05 1.51 0.09 71 1010.0
20260506123006 63 355 2.0 8.0 0.05 1.51 0.09 72 1009.9
20260506121505 63 336 1.0 5.0 0.04 1.49 0.07 72 1010.2
20260506114513 62 148 1.0 7.0 0.01 1.46 0.04 74 1010.2
20260506113012 62 9 2.0 6.0 0.01 1.46 0.04 74 1010.4
20260506111503 61 342 0.0 6.0 0.00 1.45 0.03 75 1010.4
20260506104503 59 12 1.0 4.0 0.00 1.45 0.03 77 1010.6
20260506103001 59 348 1.0 7.0 0.00 1.45 0.03 77 1010.3
20260506101600 59 151 2.0 6.0 0.00 1.45 0.03 77 1010.4
20260506094557 59 95 0.0 5.0 0.00 1.45 0.03 75 1010.2
20260506093057 59 96 1.0 4.0 0.00 1.45 0.03 75 1010.2
20260506091600 59 105 1.0 5.0 0.00 1.45 0.03 75 1010.2
20260506084602 60 76 0.0 3.0 0.00 1.45 0.03 73 1010.3
20260506083052 61 80 0.0 4.0 0.00 1.45 0.03 72 1010.4
20260506081554 61 52 2.0 5.0 0.00 1.45 0.03 71 1010.2